{"data":{"norad_id":60407,"intl_designator":"2024-141K","name":"STARLINK-11136 [DTC]","alt_names":[],"object_type":"PAYLOAD","status":"ACTIVE","operator":null,"country":"US","launch_date":"2024-08-10","launch_site_code":"AFETR","launch_vehicle":null,"mission":null,"orbit_class":"UNKNOWN","rcs_meters":null,"size_class":null,"mass_kg":null,"dimensions":null,"purposes":["comms"],"wikipedia_slug":null,"has_3d_model":false,"image_url":null,"decayed_at":null,"tle_current":{"epoch":"2026-09-21T22:00:03.000096Z","epoch_age_seconds":63195,"freshness":"FRESH","line1":"1 60407U 24141K   26264.91670139 -.00128390  00000+0 -10691-2 0  9998","line2":"2 60407  53.1570 199.0568 0001332 102.7941 156.9509 15.69759884  5980","mean_motion":15.69759884,"eccentricity":0.0001332,"inclination_deg":53.157,"raan_deg":199.0568,"arg_perigee_deg":102.7941,"mean_anomaly_deg":156.9509,"bstar":-0.0010691,"rev_number":598,"period_min":91.733774998164,"perigee_km":358.68654084871,"apogee_km":360.48146972452,"semimajor_km":6737.7210052866,"source":"CELESTRAK","updated_at":"2026-09-22T09:00:49.230572Z"}}}